STARLINK-1360, 45588

Orbit data source: Space-Track

STARLINK-1360, 45588 is a payload satellite owned by SpaceX/Seattle (US) in LEO that was launched on Wed, 22 Apr 2020 UTC via an FALCON 9 launch vehicle from the Air Force Eastern Test Range (AFETR). Payload-class satellites include a variety of spacecraft equipped with specific instruments for various scientific and technological missions. These include communications satellites like Starlink; space stations such as the ISS; scientific satellites like the Hubble; Earth observation satellites from companies like Planet Labs, Umbra, and HawkEye 360; GPS; miniature CubeSats for education and research; and military/defense satellites.

Loading next visibility...
Identifier
45588, 2020-025BK
Orbit
LEO
Country
Flag of USUS
Related business
Manufacturer
SpaceX/Seattle
Mission
Partially operational Commercial Communications
Bus & Motor
STARLINK, Unknown motor
Mass
260 kg wet, ~248 kg dry
Launch date (UTC)
2020-04-22 (5 years ago)
Launch vehicle
FALCON 9
Launch site
Air Force Eastern Test Range (AFETR)
Object type
Payload
Rocket body
Debris
Shape & HBR
Box + 1 Pan, 10.1 m
Radar Cross Section
13.562 m², Large (>1 m²)

Expand to show TLE details & history
Last TLE update: 11 hours ago

TLE from 11 hours ago
0 STARLINK-1360
1 45588U 20025BK  25289.14623035  .00085090  00000-0  64460-3 0  9994
2 45588  53.0461 277.0303 0006161  62.3895 297.7747 15.71662483304968
Epoch: 2025-10-16T03:30Z
TLE epoch observation values (Epoch: 2025-10-16T03:30:34.302Z)
Latitude
-0.00002°
Longitude
-160.52279°
Altitude
353.118 km
Speed
7.7 km/s
True Right ascension
18h 28m 07s
True Declination
0° 00' 00"
Sunlit
Object was in daylight at epoch
Visualization orbit readout
Latitude
Unknown
Longitude
Unknown
Altitude
Unknown
Speed
Unknown
Apparent Right ascension
Unknown
Apparent Declination
Unknown
Sunlit
N/A
Visualization observer readout
Local Sidereal Time
09:11:26
Azimuth
Unknown
Elevation
Unknown
Doppler factor
Unknown
Orbital elements
Apogee altitude
358.573 km
Perigee altitude
350.277 km
Semi-major axis
6,732.562 km
Eccentricity
0.00062
Inclination
53.0461°
RAAN
277.0303°
Arg. of periapsis
62.3895°
True anomaly
297.71221°
Mean anomaly
297.7747°
Eccentric anomaly
297.74346°
Mean motion
3.92892 °/min
Orbital period
91.63 mins
BSTAR
0.0006446
Loading maneuver chart data...
Computing Atmospheric mass density...

Documentation

Showing up to 5 results
|